Location: Beuvrequen
(50.8014°N, 1.6652°E)
Time: 20:18:56
(UTC+00:00)

Ariane Rocket - Pass Details

Date: 16 October 2021
Orbit: 759 x 770 km, 98.7° (Epoch: 05 December)

Event Time Altitude Azimuth Distance (km) Brightness Sun altitude
Exits shadow 19:41:04 42° 25° (NNE) 1,095 3.7 -26.2°
Drops below altitude 10° 19:44:49 10° 353° (N) 2,327 5.8 -26.7°
Sets 19:47:10 0° 349° (N) 3,259 6.7 -27.1°
